DW4604 Weather Reports


Display with metric or nautical units.
time (UTC)temp
F
wind
direction
speed
MPH
gust
MPH
rain 1hr
in
rain 24hr
in
rain mn
in
humidity
%
barometer
mb
20180424045959 55 310 2.0 7.0 0.00 0.20 0.00 97 1015.0
20180424045459 55 311 1.0 5.0 0.00 0.20 0.00 97 1015.0
20180424044959 55 315 1.0 4.0 0.00 0.20 0.00 97 1015.0
20180424044459 55 315 1.0 3.0 0.00 0.20 0.00 97 1014.9
20180424043959 54 312 2.0 7.0 0.00 0.20 0.00 97 1014.8
20180424043500 54 311 2.0 7.0 0.00 0.20 0.00 97 1014.8
20180424043000 55 313 1.0 4.0 0.00 0.20 0.00 97 1014.7
20180424042459 55 311 1.0 5.0 0.00 0.20 0.00 97 1014.7
20180424041959 55 307 1.0 5.0 0.00 0.20 0.00 97 1014.7
20180424041459 55 310 1.0 6.0 0.00 0.20 0.00 97 1014.6
20180424040959 54 315 2.0 6.0 0.00 0.20 0.00 96 1014.5
20180424040459 55 315 2.0 7.0 0.00 0.20 0.00 96 1014.4
20180424035959 55 313 3.0 7.0 0.00 0.20 0.00 96 1014.4
20180424035500 55 312 2.0 9.0 0.00 0.20 0.00 96 1014.3
20180424035000 55 313 2.0 9.0 0.00 0.20 0.00 96 1014.4
20180424034500 55 315 1.0 5.0 0.00 0.20 0.00 96 1014.3
20180424033959 55 313 1.0 6.0 0.00 0.20 0.00 96 1014.2
20180424033459 55 310 1.0 6.0 0.00 0.20 0.00 96 1014.1
20180424032959 55 305 1.0 6.0 0.00 0.20 0.00 96 1014.0
20180424032459 55 308 1.0 6.0 0.00 0.20 0.00 96 1013.9
20180424031959 55 316 0.0 3.0 0.00 0.20 0.00 96 1013.9
20180424031500 55 303 1.0 6.0 0.00 0.20 0.00 96 1013.8
20180424031000 55 304 1.0 6.0 0.00 0.20 0.00 96 1013.7
20180424030500 55 308 1.0 6.0 0.00 0.20 0.00 96 1013.7
20180424030000 55 314 1.0 4.0 0.00 0.20 0.00 96 1013.6
20180424025459 54 314 0.0 4.0 0.00 0.20 0.00 96 1013.6
20180424024959 54 314 0.0 1.0 0.00 0.20 0.00 96 1013.6
20180424024459 54 319 0.0 2.0 0.00 0.20 0.00 96 1013.6
20180424023959 54 321 0.0 2.0 0.00 0.20 0.00 96 1013.5
20180424023459 54 0 0.0 0.0 0.00 0.20 0.00 96 1013.6
20180424023000 54 0 0.0 0.0 0.00 0.20 0.00 96 1013.6
20180424022500 54 0 0.0 0.0 0.00 0.20 0.00 96 1013.6
20180424022000 54 0 0.0 0.0 0.00 0.20 0.00 96 1013.5
20180424021500 54 0 0.0 0.0 0.00 0.20 0.00 96 1013.5
20180424021000 54 0 0.0 0.0 0.00 0.20 0.00 96 1013.5
20180424020459 54 313 0.0 1.0 0.00 0.20 0.00 96 1013.5
20180424020000 54 305 0.0 1.0 0.00 0.20 0.00 96 1013.5
20180424015500 54 298 0.0 1.0 0.00 0.20 0.00 96 1013.4
20180424015000 54 306 0.0 1.0 0.00 0.20 0.00 96 1013.5
20180424014500 54 307 0.0 1.0 0.00 0.20 0.00 96 1013.4
20180424014000 54 0 0.0 0.0 0.00 0.20 0.00 96 1013.3
20180424013500 54 307 0.0 1.0 0.00 0.20 0.00 96 1013.2
20180424013000 54 313 0.0 3.0 0.00 0.20 0.00 96 1013.3
20180424012500 54 314 0.0 3.0 0.00 0.20 0.00 96 1013.2
20180424012000 54 313 0.0 1.0 0.00 0.20 0.00 96 1013.2
20180424011500 55 313 0.0 1.0 0.00 0.20 0.00 96 1013.1
20180424011000 55 312 0.0 1.0 0.00 0.20 0.00 96 1013.1
20180424010459 55 312 0.0 2.0 0.00 0.20 0.00 96 1013.1
20180424010001 55 299 0.0 2.0 0.00 0.20 0.00 96 1013.0
20180424005500 55 283 0.0 2.0 0.00 0.20 0.00 96 1013.0
20180424005000 55 218 0.0 1.0 0.00 0.20 0.00 96 1012.9
20180424004500 55 218 0.0 1.0 0.00 0.20 0.00 96 1012.9
20180424004000 55 0 0.0 0.0 0.00 0.20 0.00 96 1012.9
20180424003500 55 0 0.0 0.0 0.00 0.20 0.00 96 1012.8
20180424003001 56 318 0.0 1.0 0.00 0.20 0.00 96 1012.8
20180424002500 55 318 0.0 1.0 0.00 0.20 0.00 96 1012.8
20180424002000 55 0 0.0 0.0 0.00 0.20 0.00 96 1012.7
20180424001500 55 0 0.0 0.0 0.00 0.20 0.00 96 1012.7
20180424001000 55 0 0.0 0.0 0.00 0.20 0.00 96 1012.7
20180424000500 55 0 0.0 0.0 0.00 0.20 0.00 96 1012.7
20180424000000 55 0 0.0 0.0 0.00 0.20 0.00 96 1012.5
20180423235501 55 0 0.0 0.0 0.00 0.20 0.00 96 1012.5
20180423235000 55 0 0.0 0.0 0.00 0.20 0.00 96 1012.5
20180423234500 56 0 0.0 0.0 0.00 0.20 0.00 96 1012.5
20180423234000 56 0 0.0 0.0 0.00 0.20 0.00 96 1012.4
20180423233500 55 0 0.0 0.0 0.00 0.20 0.00 96 1012.5
20180423233000 55 0 0.0 0.0 0.00 0.20 0.00 96 1012.5
20180423232501 55 319 0.0 2.0 0.00 0.20 0.00 96 1012.6
20180423232001 55 311 0.0 2.0 0.00 0.20 0.00 96 1012.5
20180423231501 55 304 0.0 2.0 0.00 0.20 0.00 96 1012.6
20180423231001 55 238 0.0 1.0 0.00 0.20 0.00 95 1012.6
20180423230500 55 0 0.0 0.0 0.00 0.20 0.00 95 1012.5
20180423230000 55 0 0.0 0.0 0.00 0.20 0.00 95 1012.5
20180423225500 55 238 0.0 1.0 0.00 0.20 0.00 95 1012.5
20180423225000 55 238 0.0 1.0 0.00 0.20 0.00 95 1012.6
20180423224501 55 0 0.0 0.0 0.00 0.20 0.00 95 1012.5
20180423224001 55 0 0.0 0.0 0.00 0.20 0.00 95 1012.5
20180423223501 55 0 0.0 0.0 0.00 0.20 0.00 95 1012.5
20180423223000 55 0 0.0 0.0 0.00 0.20 0.00 95 1012.5
20180423222500 55 0 0.0 0.0 0.00 0.20 0.00 95 1012.4
20180423222000 56 0 0.0 0.0 0.00 0.20 0.00 95 1012.4
20180423221501 56 0 0.0 0.0 0.00 0.20 0.00 95 1012.5
20180423221001 56 0 0.0 0.0 0.00 0.20 0.00 94 1012.4
20180423220501 56 0 0.0 0.0 0.00 0.20 0.00 94 1012.4
20180423220001 56 0 0.0 0.0 0.00 0.20 0.00 94 1012.4
20180423215501 57 0 0.0 0.0 0.00 0.20 0.20 94 1012.4
20180423215001 57 0 0.0 0.0 0.00 0.20 0.20 94 1012.5
20180423214501 57 0 0.0 0.0 0.00 0.20 0.20 94 1012.4
20180423214001 57 0 0.0 0.0 0.00 0.20 0.20 95 1012.5
20180423213500 57 0 0.0 0.0 0.00 0.20 0.20 94 1012.5
20180423213001 57 0 0.0 0.0 0.00 0.20 0.20 94 1012.6
20180423212501 57 0 0.0 0.0 0.00 0.20 0.20 94 1012.6
20180423212001 57 239 0.0 1.0 0.00 0.20 0.20 94 1012.7
20180423211501 57 239 0.0 1.0 0.00 0.20 0.20 94 1012.6
20180423211001 57 238 0.0 1.0 0.00 0.20 0.20 94 1012.6
20180423210501 57 238 0.0 2.0 0.00 0.20 0.20 94 1012.6
20180423210001 57 241 0.0 2.0 0.00 0.20 0.20 94 1012.6
20180423205501 57 239 0.0 2.0 0.00 0.20 0.20 94 1012.5
20180423205001 58 235 0.0 2.0 0.00 0.20 0.20 94 1012.6
20180423204501 58 234 1.0 3.0 0.00 0.20 0.20 94 1012.5
20180423204001 58 235 1.0 7.0 0.00 0.20 0.20 94 1012.4
20180423203501 58 235 2.0 7.0 0.00 0.20 0.20 94 1012.5
20180423203001 58 235 2.0 4.0 0.00 0.20 0.20 94 1012.6
20180423202501 58 233 1.0 4.0 0.00 0.20 0.20 95 1012.6
20180423202001 58 229 1.0 3.0 0.00 0.20 0.20 95 1012.6
20180423201501 58 230 0.0 3.0 0.00 0.20 0.20 95 1012.6
20180423201001 58 230 0.0 3.0 0.00 0.20 0.20 95 1012.6
20180423200501 58 229 0.0 3.0 0.00 0.20 0.20 94 1012.6
20180423200001 58 220 0.0 1.0 0.00 0.20 0.20 94 1012.6
20180423195501 58 0 0.0 0.0 0.00 0.20 0.20 94 1012.5
20180423195001 58 0 0.0 0.0 0.01 0.20 0.20 94 1012.5
20180423194501 58 0 0.0 0.0 0.01 0.20 0.20 94 1012.4
20180423194001 58 242 0.0 1.0 0.01 0.20 0.20 94 1012.4
20180423193501 58 242 0.0 1.0 0.01 0.20 0.20 94 1012.5
20180423193001 58 0 0.0 0.0 0.01 0.20 0.20 93 1012.3
20180423192501 58 0 0.0 0.0 0.01 0.20 0.20 94 1012.2
20180423192002 58 0 0.0 0.0 0.02 0.20 0.20 93 1012.1
20180423191502 58 0 0.0 0.0 0.02 0.20 0.20 93 1012.0
20180423191001 58 0 0.0 0.0 0.02 0.20 0.20 93 1012.0
20180423190501 59 242 0.0 1.0 0.02 0.20 0.20 93 1012.0
20180423190001 59 242 0.0 1.0 0.02 0.20 0.20 93 1011.9
20180423185501 59 0 0.0 0.0 0.02 0.20 0.20 93 1012.1
20180423185002 59 0 0.0 0.0 0.02 0.19 0.19 92 1012.2
20180423184502 59 0 0.0 0.0 0.02 0.19 0.19 92 1012.3
20180423184002 59 0 0.0 0.0 0.02 0.19 0.19 92 1012.2
20180423183501 59 0 0.0 0.0 0.02 0.19 0.19 92 1012.1
20180423183001 59 0 0.0 0.0 0.02 0.19 0.19 92 1012.1
20180423182501 59 242 0.0 1.0 0.03 0.19 0.19 92 1012.0
20180423182001 59 242 0.0 1.0 0.02 0.18 0.18 91 1012.1
20180423181502 59 242 0.0 1.0 0.03 0.18 0.18 90 1011.8
20180423181002 59 241 0.0 1.0 0.09 0.17 0.17 90 1011.9
20180423180502 59 241 0.0 1.0 0.11 0.17 0.17 90 1011.9
20180423180001 59 0 0.0 0.0 0.14 0.17 0.17 90 1012.0
20180423175501 59 246 1.0 3.0 0.15 0.17 0.17 89 1011.8
20180423175001 59 236 2.0 7.0 0.15 0.17 0.17 89 1012.0
20180423174501 59 234 2.0 7.0 0.15 0.17 0.17 88 1012.1
20180423174002 59 238 1.0 6.0 0.14 0.17 0.17 88 1012.2
20180423173502 60 246 1.0 6.0 0.14 0.17 0.17 87 1012.3
20180423173001 60 246 1.0 6.0 0.13 0.16 0.16 87 1012.1
20180423172501 60 270 1.0 5.0 0.13 0.16 0.16 85 1012.1
20180423172002 61 310 3.0 15.0 0.13 0.16 0.16 83 1012.0
20180423171502 61 308 6.0 15.0 0.12 0.14 0.14 81 1012.0
20180423171002 62 307 7.0 20.0 0.06 0.08 0.08 78 1011.8
20180423170502 64 305 9.0 23.0 0.04 0.06 0.06 75 1012.0
20180423170002 67 305 5.0 23.0 0.01 0.03 0.03 69 1011.6
20180423165502 71 319 0.0 22.0 0.00 0.02 0.02 56 1011.3
20180423165002 71 0 0.0 0.0 0.00 0.02 0.02 55 1010.4
20180423164501 72 319 0.0 4.0 0.00 0.02 0.02 54 1010.3
20180423164002 72 317 0.0 4.0 0.00 0.02 0.02 53 1010.2
20180423163502 72 308 1.0 3.0 0.00 0.02 0.02 52 1010.3
20180423163002 72 320 2.0 6.0 0.00 0.02 0.02 52 1010.2
20180423162502 72 324 2.0 6.0 0.00 0.02 0.02 51 1010.2
20180423162002 73 322 1.0 5.0 0.00 0.02 0.02 51 1010.2
20180423161502 73 310 1.0 5.0 0.00 0.02 0.02 50 1010.2
20180423161002 74 304 1.0 7.0 0.00 0.02 0.02 49 1010.2
20180423160502 74 304 1.0 7.0 0.00 0.02 0.02 48 1010.1
20180423160002 74 316 1.0 5.0 0.00 0.02 0.02 48 1010.2
20180423155502 74 310 1.0 6.0 0.00 0.02 0.02 48 1010.2
20180423155002 74 310 2.0 8.0 0.00 0.02 0.02 47 1010.1
20180423154502 74 312 2.0 8.0 0.00 0.02 0.02 47 1010.2
20180423154002 74 300 1.0 5.0 0.00 0.02 0.02 47 1010.2
20180423153501 75 284 1.0 5.0 0.00 0.02 0.02 47 1010.2
20180423153002 75 281 2.0 7.0 0.00 0.02 0.02 47 1010.2
20180423152502 75 294 2.0 8.0 0.00 0.02 0.02 46 1010.2
20180423152002 75 309 2.0 8.0 0.00 0.02 0.02 46 1010.2
20180423151502 75 312 2.0 8.0 0.00 0.02 0.02 45 1010.2
20180423151002 76 302 2.0 8.0 0.00 0.02 0.02 45 1010.3
20180423150502 76 295 3.0 9.0 0.00 0.02 0.02 45 1010.4
20180423150002 76 302 3.0 11.0 0.00 0.02 0.02 44 1010.2
20180423145502 76 271 3.0 14.0 0.00 0.02 0.02 44 1010.3
20180423145002 76 246 4.0 14.0 0.00 0.02 0.02 47 1010.2
20180423144502 75 247 3.0 9.0 0.00 0.02 0.02 49 1010.2
20180423144002 75 241 3.0 12.0 0.00 0.02 0.02 49 1010.3
20180423143502 76 249 3.0 12.0 0.00 0.02 0.02 48 1010.1
20180423143002 76 251 4.0 10.0 0.00 0.02 0.02 47 1010.2
20180423142502 76 237 4.0 9.0 0.00 0.02 0.02 48 1010.1
20180423142002 76 237 4.0 10.0 0.00 0.02 0.02 49 1010.1
20180423141503 75 237 4.0 12.0 0.00 0.02 0.02 49 1010.2
20180423141002 76 249 3.0 12.0 0.00 0.02 0.02 48 1010.1
20180423140502 76 251 4.0 10.0 0.00 0.02 0.02 48 1010.2
20180423140002 76 240 5.0 12.0 0.00 0.02 0.02 48 1010.4
20180423135503 76 242 3.0 12.0 0.00 0.02 0.02 48 1010.4
20180423135002 76 257 2.0 8.0 0.00 0.02 0.02 48 1010.5
20180423134502 76 272 1.0 7.0 0.00 0.02 0.02 48 1010.6
20180423134002 76 249 2.0 9.0 0.00 0.02 0.02 48 1010.6
20180423133503 76 254 2.0 9.0 0.00 0.02 0.02 48 1010.7
20180423133003 76 264 1.0 7.0 0.00 0.02 0.02 48 1010.6
20180423132503 75 241 2.0 10.0 0.00 0.02 0.02 48 1010.6
20180423132002 75 238 3.0 10.0 0.00 0.02 0.02 49 1010.6
20180423131502 75 244 3.0 10.0 0.00 0.02 0.02 48 1010.6
20180423131002 75 240 2.0 7.0 0.00 0.02 0.02 49 1010.6
20180423130503 75 239 2.0 7.0 0.00 0.02 0.02 48 1010.7
20180423130003 76 293 2.0 7.0 0.00 0.02 0.02 47 1010.7
20180423125502 75 259 3.0 9.0 0.00 0.02 0.02 46 1010.7
20180423125002 75 235 4.0 9.0 0.00 0.02 0.02 47 1010.9
20180423124502 75 233 4.0 11.0 0.00 0.02 0.02 48 1010.9
20180423124003 75 233 4.0 11.0 0.00 0.02 0.02 47 1011.0
20180423123503 76 233 5.0 13.0 0.00 0.02 0.02 48 1011.0
20180423123003 75 233 6.0 13.0 0.00 0.02 0.02 48 1011.2
20180423122502 75 231 5.0 12.0 0.00 0.02 0.02 48 1011.1
20180423122002 75 229 5.0 11.0 0.00 0.02 0.02 48 1011.2
20180423121503 75 232 7.0 14.0 0.00 0.02 0.02 47 1011.2
20180423121003 75 233 7.0 14.0 0.00 0.02 0.02 47 1011.4
20180423120503 75 231 5.0 13.0 0.00 0.02 0.02 45 1011.5
20180423120003 75 228 6.0 14.0 0.00 0.02 0.02 45 1011.5
20180423115503 75 216 5.0 14.0 0.00 0.02 0.02 45 1011.4
20180423115002 75 215 4.0 11.0 0.00 0.02 0.02 46 1011.5
20180423114502 75 223 5.0 11.0 0.00 0.02 0.02 46 1011.6
20180423114003 74 213 5.0 11.0 0.00 0.02 0.02 46 1011.6
20180423113503 75 218 4.0 9.0 0.00 0.02 0.02 46 1011.5
20180423113003 74 225 3.0 9.0 0.00 0.02 0.02 45 1011.6
20180423112503 74 203 3.0 8.0 0.00 0.02 0.02 47 1011.6
20180423112003 74 192 2.0 8.0 0.00 0.02 0.02 45 1011.6
20180423111503 74 198 1.0 4.0 0.00 0.02 0.02 46 1011.6
20180423111003 74 214 1.0 4.0 0.00 0.02 0.02 47 1011.6
20180423110503 73 241 1.0 5.0 0.00 0.02 0.02 47 1011.6
20180423110003 73 230 3.0 7.0 0.00 0.02 0.02 47 1011.7
20180423105503 73 206 3.0 8.0 0.00 0.02 0.02 47 1011.7
20180423105003 73 186 3.0 8.0 0.00 0.02 0.02 47 1011.8
20180423104503 73 166 2.0 8.0 0.00 0.02 0.02 47 1011.8
20180423104003 72 194 2.0 6.0 0.00 0.02 0.02 46 1011.9
20180423103503 72 214 3.0 6.0 0.00 0.02 0.02 47 1012.0
20180423103003 72 225 3.0 6.0 0.00 0.02 0.02 47 1012.0
20180423102502 72 225 3.0 7.0 0.00 0.02 0.02 47 1012.1
20180423102003 72 209 2.0 7.0 0.00 0.02 0.02 45 1012.2
20180423101503 72 197 2.0 5.0 0.00 0.02 0.02 46 1012.3
20180423101003 71 209 2.0 5.0 0.00 0.02 0.02 47 1012.3
20180423100503 71 192 1.0 4.0 0.00 0.02 0.02 48 1012.3
20180423100003 70 194 2.0 5.0 0.00 0.02 0.02 48 1012.5
20180423095503 70 211 2.0 5.0 0.00 0.02 0.02 47 1012.5
20180423095003 70 209 2.0 5.0 0.00 0.02 0.02 48 1012.5
20180423094503 70 199 1.0 4.0 0.00 0.02 0.02 48 1012.5
20180423094003 70 197 1.0 5.0 0.00 0.02 0.02 49 1012.6
20180423093504 70 197 2.0 7.0 0.00 0.02 0.02 49 1012.7
20180423093003 70 186 2.0 7.0 0.00 0.02 0.02 51 1012.7
20180423092503 69 179 2.0 5.0 0.00 0.02 0.02 50 1012.8
20180423092003 69 185 2.0 5.0 0.00 0.02 0.02 51 1012.8
20180423091503 68 185 2.0 6.0 0.00 0.02 0.02 52 1012.8
20180423091003 68 193 2.0 7.0 0.00 0.02 0.02 52 1012.8
20180423090504 67 189 2.0 7.0 0.00 0.02 0.02 54 1012.7
20180423090004 67 166 2.0 5.0 0.00 0.02 0.02 56 1012.8
20180423085503 65 179 1.0 4.0 0.00 0.02 0.02 57 1012.8
20180423085003 65 172 1.0 3.0 0.00 0.02 0.02 59 1012.8
20180423084503 64 178 1.0 5.0 0.00 0.02 0.02 60 1012.7
20180423084004 63 190 1.0 5.0 0.00 0.02 0.02 62 1012.7
20180423083505 62 177 1.0 4.0 0.00 0.02 0.02 63 1012.8
20180423083004 62 158 1.0 4.0 0.02 0.02 0.02 65 1012.9
20180423082504 61 163 1.0 5.0 0.02 0.02 0.02 67 1012.9
20180423082004 61 191 1.0 5.0 0.02 0.02 0.02 67 1013.1
20180423081503 60 215 1.0 4.0 0.02 0.02 0.02 70 1013.1
20180423081003 59 52 1.0 5.0 0.02 0.02 0.02 73 1013.1
20180423080504 58 52 2.0 6.0 0.02 0.02 0.02 71 1013.2
20180423080004 58 40 3.0 7.0 0.02 0.02 0.02 73 1013.2
20180423075504 57 46 3.0 7.0 0.02 0.02 0.02 75 1013.4
20180423075003 57 67 1.0 5.0 0.02 0.02 0.02 75 1013.4
20180423074503 57 13 2.0 5.0 0.02 0.02 0.02 73 1013.5
20180423074003 58 24 3.0 9.0 0.02 0.02 0.02 70 1013.8
20180423073503 59 18 5.0 13.0 0.02 0.02 0.02 62 1013.6
20180423073004 61 330 4.0 13.0 0.00 0.00 0.00 55 1014.1
20180423072504 62 314 4.0 12.0 0.00 0.00 0.00 52 1014.7
20180423072004 63 310 3.0 12.0 0.00 0.00 0.00 50 1014.7
20180423071504 64 314 0.0 4.0 0.00 0.00 0.00 49 1013.5
20180423071004 64 128 0.0 3.0 0.00 0.00 0.00 50 1012.9
20180423070504 63 100 0.0 3.0 0.00 0.00 0.00 49 1012.8
20180423070004 63 79 1.0 4.0 0.00 0.00 0.00 50 1012.8
20180423065504 62 80 1.0 4.0 0.00 0.00 0.00 51 1012.7
20180423065004 62 89 1.0 4.0 0.00 0.00 0.00 52 1012.6
20180423064504 62 98 1.0 4.0 0.00 0.00 0.00 51 1012.5
20180423064003 61 105 1.0 4.0 0.00 0.00 0.00 53 1012.6
20180423063504 61 182 1.0 4.0 0.00 0.00 0.00 54 1012.7
20180423063003 60 191 1.0 3.0 0.00 0.00 0.00 55 1012.7
20180423062503 59 107 1.0 5.0 0.00 0.00 0.00 56 1012.7
20180423062003 58 100 1.0 5.0 0.00 0.00 0.00 57 1012.7
20180423061503 58 155 1.0 3.0 0.00 0.00 0.00 58 1012.7
20180423061004 58 145 1.0 3.0 0.00 0.00 0.00 58 1012.6
20180423060504 57 154 1.0 3.0 0.00 0.00 0.00 58 1012.6
20180423060004 56 168 1.0 3.0 0.00 0.00 0.00 59 1012.7
20180423055504 56 178 0.0 3.0 0.00 0.00 0.00 61 1012.7
20180423055004 55 112 0.0 3.0 0.00 0.00 0.00 62 1012.8
20180423054504 54 151 0.0 3.0 0.00 0.00 0.00 64 1012.9
20180423054004 53 192 0.0 2.0 0.00 0.00 0.00 65 1013.0
20180423053504 53 102 0.0 2.0 0.00 0.00 0.00 67 1013.1
20180423053004 52 63 0.0 3.0 0.00 0.00 0.00 66 1013.2
20180423052504 52 60 0.0 3.0 0.00 0.00 0.00 66 1013.2
20180423052004 51 63 0.0 1.0 0.00 0.00 0.00 68 1013.4
20180423051504 50 64 0.0 2.0 0.00 0.00 0.00 70 1013.3
20180423051004 50 71 0.0 4.0 0.00 0.00 0.00 71 1013.2
20180423050504 51 148 0.0 4.0 0.00 0.00 0.00 71 1013.1